EW4785 Weather Reports


Display with metric or nautical units.
time (UTC)temp
F
wind
direction
speed
MPH
gust
MPH
rain 1hr
in
rain 24hr
in
rain mn
in
humidity
%
barometer
mb
20260507084558 63 190 1.0 3.0 0.02 0.34 0.12 97 1009.4
20260507083058 63 202 1.0 5.0 0.02 0.34 0.12 97 1009.5
20260507081556 64 142 0.0 3.0 0.02 0.33 0.11 97 1009.7
20260507080104 64 182 0.0 3.0 0.01 0.32 0.10 97 1010.3
20260507074556 63 187 1.0 4.0 0.01 0.32 0.10 97 1010.3
20260507073053 63 194 1.0 4.0 0.01 0.32 0.10 97 1009.8
20260507071553 63 163 0.0 4.0 0.00 0.31 0.09 97 1010.0
20260507064621 63 162 0.0 2.0 0.01 0.31 0.09 96 1010.9
20260507063052 63 147 0.0 2.0 0.02 0.31 0.09 96 1011.1
20260507061548 64 147 0.0 2.0 0.02 0.31 0.09 96 1011.5
20260507060110 64 220 0.0 3.0 0.01 0.30 0.08 96 1011.7
20260507054551 64 220 0.0 3.0 0.01 0.30 0.08 95 1011.6
20260507053045 64 182 0.0 3.0 0.00 0.28 0.07 95 1011.8
20260507051559 64 182 0.0 1.0 0.04 0.28 0.07 95 1011.6
20260507050048 64 182 0.0 3.0 0.07 0.28 0.07 95 1011.7
20260507044542 64 13 1.0 4.0 0.12 0.28 0.07 95 1012.1
20260507043042 64 173 2.0 7.0 0.22 0.28 0.07 95 1010.5
20260507041537 65 169 2.0 7.0 0.19 0.25 0.03 95 1011.8
20260507040035 65 155 1.0 6.0 0.18 0.22 0.00 94 1012.2
20260507034534 66 156 3.0 6.0 0.14 0.16 0.16 93 1013.2
20260507033031 66 170 2.0 6.0 0.05 0.07 0.07 92 1013.4
20260507031533 67 192 2.0 7.0 0.04 0.06 0.06 91 1012.9
20260507030035 67 142 2.0 5.0 0.02 0.03 0.03 91 1012.3
20260507024529 67 166 2.0 6.0 0.01 0.02 0.02 91 1012.6
20260507023028 67 195 2.0 5.0 0.01 0.02 0.02 91 1012.2
20260507021527 67 189 2.0 4.0 0.01 0.02 0.02 91 1012.0
20260507020028 67 91 0.0 1.0 0.00 0.01 0.01 90 1011.5
20260507014526 68 91 0.0 1.0 0.00 0.01 0.01 90 1011.3
20260507013026 68 91 0.0 1.0 0.00 0.01 0.01 89 1011.4
20260507011525 68 91 0.0 1.0 0.00 0.01 0.01 88 1011.4
20260507010034 68 91 0.0 2.0 0.00 0.01 0.01 87 1011.5
20260507004526 69 91 0.0 1.0 0.00 0.01 0.01 85 1011.7
20260507003023 69 91 0.0 1.0 0.00 0.01 0.01 84 1011.4
20260507001526 70 91 0.0 2.0 0.00 0.01 0.01 83 1011.5
20260507000023 70 197 0.0 0.0 0.00 0.01 0.01 82 1011.4
20260506234526 71 197 0.0 2.0 0.00 0.01 0.01 81 1011.4
20260506233023 71 197 0.0 3.0 0.00 0.01 0.01 80 1011.3
20260506231521 71 178 1.0 4.0 0.00 0.01 0.01 79 1011.5
20260506230025 72 176 1.0 5.0 0.00 0.01 0.01 78 1011.5
20260506224518 72 206 2.0 9.0 0.00 0.01 0.01 77 1011.7
20260506223017 72 161 2.0 10.0 0.00 0.01 0.01 76 1011.6
20260506221519 73 217 3.0 10.0 0.00 0.01 0.01 74 1011.7
20260506220016 73 170 1.0 11.0 0.00 0.01 0.01 74 1011.3
20260506214512 73 178 2.0 11.0 0.00 0.01 0.01 75 1011.1
20260506213010 73 98 4.0 10.0 0.00 0.01 0.01 74 1011.3
20260506211508 73 176 3.0 10.0 0.00 0.01 0.01 76 1011.3
20260506210007 73 239 2.0 9.0 0.00 0.01 0.01 76 1011.4
20260506204504 72 201 3.0 9.0 0.00 0.01 0.01 77 1011.5
20260506203002 71 211 3.0 8.0 0.00 0.01 0.01 80 1011.5
20260506201503 70 180 2.0 11.0 0.00 0.01 0.01 83 1011.2
20260506200100 69 229 5.0 14.0 0.00 0.01 0.01 84 1011.5
20260506194558 67 186 4.0 10.0 0.00 0.01 0.01 86 1011.6
20260506193104 67 207 3.0 10.0 0.00 0.01 0.01 89 1011.9
20260506191608 66 180 5.0 13.0 0.00 0.01 0.01 89 1012.1
20260506190056 66 134 4.0 10.0 0.01 0.01 0.01 89 1012.2
20260506184610 66 188 2.0 6.0 0.01 0.01 0.01 89 1012.0
20260506183052 66 165 2.0 9.0 0.01 0.01 0.01 87 1012.7
20260506181550 67 148 2.0 8.0 0.01 0.01 0.01 83 1013.6
20260506180051 70 176 3.0 11.0 0.00 0.00 0.00 74 1014.0
20260506174548 71 213 3.0 8.0 0.00 0.00 0.00 70 1014.0
20260506173049 71 182 3.0 9.0 0.00 0.00 0.00 69 1013.5
20260506171556 71 196 3.0 9.0 0.00 0.00 0.00 70 1013.5
20260506170049 70 94 3.0 10.0 0.00 0.00 0.00 72 1013.5
20260506164543 68 67 2.0 7.0 0.00 0.00 0.00 75 1013.6
20260506163038 68 176 3.0 8.0 0.00 0.00 0.00 75 1014.0
20260506161536 67 182 2.0 7.0 0.00 0.00 0.00 76 1013.9
20260506160037 66 153 2.0 6.0 0.00 0.00 0.00 76 1013.4
20260506154534 66 116 1.0 8.0 0.00 0.00 0.00 76 1013.7
20260506153032 66 158 1.0 7.0 0.00 0.00 0.00 74 1013.9
20260506151538 67 206 0.0 5.0 0.00 0.00 0.00 74 1013.8
20260506150031 66 182 3.0 7.0 0.00 0.00 0.00 73 1013.9
20260506144531 67 170 2.0 7.0 0.00 0.00 0.00 72 1013.6
20260506143031 67 173 2.0 8.0 0.00 0.00 0.00 71 1013.4
20260506141529 67 185 3.0 9.0 0.00 0.00 0.00 71 1013.2
20260506140032 66 175 3.0 7.0 0.00 0.00 0.00 71 1013.1
20260506134524 66 169 2.0 7.0 0.00 0.00 0.00 72 1013.1
20260506133029 65 191 4.0 11.0 0.00 0.00 0.00 73 1013.1
20260506131521 64 154 3.0 8.0 0.00 0.00 0.00 74 1013.4
20260506130023 63 163 2.0 8.0 0.00 0.00 0.00 75 1013.9
20260506124522 63 245 2.0 6.0 0.00 0.00 0.00 76 1014.2
20260506123020 62 172 1.0 6.0 0.00 0.00 0.00 78 1014.1
20260506121519 61 161 1.0 6.0 0.00 0.00 0.00 79 1013.8
20260506120020 61 209 2.0 11.0 0.00 0.00 0.00 79 1013.6
20260506114532 61 153 2.0 8.0 0.00 0.00 0.00 79 1013.5
20260506113017 61 174 1.0 6.0 0.00 0.00 0.00 80 1013.5
20260506111516 60 166 2.0 6.0 0.00 0.00 0.00 80 1013.2
20260506110020 61 205 1.0 6.0 0.00 0.00 0.00 79 1012.8
20260506104512 61 186 3.0 7.0 0.00 0.00 0.00 78 1013.1
20260506103012 61 186 2.0 7.0 0.00 0.00 0.00 78 1012.9
20260506101516 61 181 3.0 10.0 0.00 0.00 0.00 77 1012.8
20260506100021 61 205 2.0 7.0 0.00 0.00 0.00 76 1012.8
20260506094507 61 158 3.0 9.0 0.00 0.00 0.00 76 1012.8
20260506093006 62 148 2.0 8.0 0.00 0.00 0.00 76 1013.1
20260506091503 62 179 2.0 9.0 0.00 0.00 0.00 75 1013.3